Location: Newark
(39.7199°N, 6.8858°W)
Time: 20:51:58
(UTC+00:00)

Hubble Space Telescope - Visible Passes

Search period start: 16 November 2019 00:00
Search period end: 26 November 2019 00:00
Orbit: 536 x 540 km, 28.5° (Epoch: 16 November)

Date Brightness Start Highest point End Pass type
(mag) Time Alt. Az. Time Alt. Az. Time Alt. Az.
19 Nov 3.6 19:43:38 10° SSW 19:44:01 11° SSW 19:44:01 11° SSW visible
20 Nov 3.3 19:32:48 10° SW 19:34:03 14° SSW 19:34:03 14° SSW visible
21 Nov 3.3 17:43:02 10° S 17:44:15 11° SSE 17:45:28 10° SSE visible
21 Nov 3.0 19:22:00 10° SW 19:24:04 16° S 19:24:04 16° S visible
22 Nov 2.9 19:11:17 10° SW 19:14:00 17° S 19:14:06 17° S visible
23 Nov 2.9 19:00:36 10° SW 19:03:18 17° S 19:04:09 16° SSE visible
24 Nov 3.0 18:49:58 10° SW 18:52:36 16° S 18:54:15 13° SSE visible
25 Nov 3.2 18:39:24 10° SW 18:41:53 15° S 18:44:22 10° SSE visible
